Overview Statistics Trail Chart Weather Telemetry Raw packets
 

This is the latest recevied weather packets stored in our database for station/object KI4NG. If no packets are shown the sender has not sent any weather packets the latest 10 day(s).

<< 33 34 35 36 37 38 39 >>
Time Temp. Humidity Pressure Rain* Wind** Luminosity Snow
1788394467 28.89° C 74% 1020.3 hPa 0 mm - 0 W/m² -
1788394166 28.89° C 75% 1019.9 hPa 0 mm - 0 W/m² -
1788393862 28.89° C 73% 1019.9 hPa 0 mm - 2 W/m² -
1788393559 29.44° C 72% 1020 hPa 0 mm - 4 W/m² -
1788393255 29.44° C 72% 1020 hPa 0 mm - 9 W/m² -
1788392949 30° C 71% 1019.9 hPa 0 mm - 14 W/m² -
1788392644 30° C 70% 1019.9 hPa 0 mm - 18 W/m² -
1788392343 30.56° C 69% 1019.9 hPa 0 mm - 21 W/m² -
1788392037 30.56° C 68% 1019.8 hPa 0 mm - 26 W/m² -
1788391736 30.56° C 68% 1020 hPa 0 mm - 33 W/m² -
1788391431 30.56° C 67% 1020 hPa 0 mm - 34 W/m² -
1788391131 31.11° C 65% 1020 hPa 0 mm - 42 W/m² -
1788390826 31.11° C 64% 1019.9 hPa 0 mm - 52 W/m² -
1788390521 31.67° C 64% 1019.7 hPa 0 mm - 65 W/m² -
1788390220 31.67° C 63% 1019.9 hPa 0 mm - 67 W/m² -
1788389914 31.67° C 63% 1019.9 hPa 0 mm - 77 W/m² -
1788389609 31.67° C 61% 1020 hPa 0 mm - 95 W/m² -
1788389307 31.67° C 63% 1020.1 hPa 0 mm - 83 W/m² -
1788389003 31.67° C 62% 1020.3 hPa 0 mm - 74 W/m² -
1788388699 31.67° C 59% 1020.2 hPa 0 mm - 81 W/m² -
1788388394 31.67° C 63% 1020.1 hPa 0 mm - 120 W/m² -
1788388093 32.78° C 61% 1020 hPa 0 mm - 85 W/m² -
1788387787 32.78° C 59% 1019.8 hPa 0 mm - 102 W/m² -
1788387481 32.78° C 60% 1020 hPa 0 mm - 203 W/m² -
1788387180 31.67° C 64% 1020.2 hPa 0 mm - 211 W/m² -

* Rain latest hour (hover to see other rain measurements)
** Current wind speed in m/s (hover to see current wind gust speed)